GW6259 Weather Reports


time (UTC)temp
F
wind
direction
speed
knots
gust
knots
rain 1hr
in
rain 24hr
in
rain mn
in
humidity
%
barometer
mb
20260507141521 59 60 7.0 13.9 0.00 0.00 0.00 73 1013.5
20260507140023 60 124 7.8 18.2 0.00 0.00 0.00 74 1013.5
20260507134507 61 139 7.8 14.8 0.00 0.00 0.00 72 1013.9
20260507130021 60 139 8.7 14.8 0.00 0.00 0.00 71 1013.7
20260507124534 62 89 8.7 14.8 0.00 0.00 0.00 68 1014.3
20260507121516 61 109 9.6 15.6 0.00 0.00 0.00 66 1014.1
20260507120007 61 98 8.7 14.8 0.00 0.00 0.00 65 1013.7
20260507113027 60 87 10.4 19.1 0.00 0.00 0.00 61 1013.9
20260507111512 62 68 11.3 22.6 0.00 0.00 0.00 58 1014.2
20260507110018 62 88 12.2 19.1 0.00 0.00 0.00 57 1014.5
20260507104504 63 58 8.7 15.6 0.00 0.00 0.00 55 1014.4
20260507103004 62 85 13.0 19.1 0.00 0.00 0.00 54 1014.5
20260507101516 61 101 15.6 24.3 0.00 0.00 0.00 53 1014.3
20260507100016 62 96 13.9 21.7 0.00 0.00 0.00 50 1014.6
20260507094521 61 79 14.8 25.2 0.00 0.00 0.00 48 1014.8
20260507093004 62 93 11.3 23.5 0.00 0.00 0.00 47 1014.8
20260507091508 61 108 11.3 21.7 0.00 0.00 0.00 46 1014.9
20260507090013 61 135 12.2 20.9 0.00 0.00 0.00 47 1015.0
20260507084517 60 108 13.0 20.9 0.00 0.00 0.00 49 1015.1
20260507073017 58 134 13.0 21.7 0.00 0.00 0.00 58 1014.8
20260507071520 59 117 10.4 18.2 0.00 0.00 0.00 52 1014.9
20260507063020 58 122 9.6 18.2 0.00 0.00 0.00 45 1015.0
20260507061521 57 118 10.4 19.1 0.00 0.00 0.00 46 1014.9
20260507060022 57 101 8.7 14.8 0.00 0.00 0.00 45 1014.7
20260507054506 57 114 8.7 17.4 0.00 0.00 0.00 44 1014.6
20260507053014 57 74 9.6 16.5 0.00 0.00 0.00 43 1014.5
20260507050027 56 58 7.0 13.0 0.00 0.00 0.00 45 1014.7
20260507044525 55 96 7.0 11.3 0.00 0.00 0.00 44 1014.9
20260507043019 55 88 7.0 12.2 0.00 0.00 0.00 44 1014.7
20260507041514 55 131 5.2 11.3 0.00 0.00 0.00 43 1015.1
20260507040019 55 90 6.1 13.9 0.00 0.00 0.00 45 1015.2
20260507034523 54 75 7.0 12.2 0.00 0.00 0.00 47 1015.2
20260507033026 54 72 7.0 12.2 0.00 0.00 0.00 46 1015.6
20260507031512 55 63 3.5 9.6 0.00 0.00 0.00 45 1015.8
20260507030021 55 154 5.2 10.4 0.00 0.00 0.00 42 1015.7
20260507024459 55 79 4.3 9.6 0.00 0.00 0.00 42 1015.8
20260507023001 55 65 4.3 9.6 0.00 0.00 0.00 42 1015.9
20260507021500 55 104 4.3 10.4 0.00 0.00 0.00 43 1015.9
20260507020003 56 98 4.3 10.4 0.00 0.00 0.00 43 1015.8
20260507014500 56 98 5.2 9.6 0.00 0.00 0.00 43 1015.7
20260507012959 55 63 4.3 7.8 0.00 0.00 0.00 43 1015.6
20260507011500 55 152 2.6 7.0 0.00 0.00 0.00 46 1015.9
20260507010004 55 34 5.2 9.6 0.00 0.00 0.00 45 1016.0
20260507004502 55 75 3.5 10.4 0.00 0.00 0.00 48 1016.3
20260507003000 54 39 1.7 6.1 0.00 0.00 0.00 51 1016.2
20260507001505 54 57 2.6 4.3 0.00 0.00 0.00 52 1016.3
20260507000000 54 68 1.7 6.1 0.00 0.00 0.00 50 1016.7
20260506234500 55 60 3.5 7.8 0.00 0.00 0.00 50 1016.6
20260506233003 54 63 2.6 7.0 0.00 0.00 0.00 50 1016.7
20260506231501 54 65 2.6 5.2 0.00 0.00 0.00 51 1017.2
20260506230000 55 49 0.9 5.2 0.00 0.00 0.00 50 1017.4
20260506224500 55 100 2.6 6.1 0.00 0.00 0.00 48 1017.5
20260506223002 55 97 2.6 4.3 0.00 0.00 0.00 48 1017.4
20260506221504 55 66 2.6 5.2 0.00 0.00 0.00 48 1017.4
20260506220003 55 32 2.6 5.2 0.00 0.00 0.00 50 1017.2
20260506214502 56 75 1.7 4.3 0.00 0.00 0.00 50 1017.5
20260506213002 56 60 1.7 4.3 0.00 0.00 0.00 53 1017.6
20260506210007 56 43 3.5 6.1 0.00 0.00 0.00 54 1017.6
20260506204502 56 78 2.6 5.2 0.00 0.00 0.00 57 1017.3
20260506203001 56 64 2.6 7.0 0.00 0.00 0.00 58 1017.6
20260506201503 56 26 2.6 5.2 0.00 0.00 0.00 58 1017.3
20260506200004 56 79 1.7 8.7 0.00 0.00 0.00 55 1017.3
20260506194506 56 76 5.2 10.4 0.00 0.00 0.00 54 1016.5
20260506193002 57 73 3.5 7.0 0.00 0.00 0.00 59 1016.6
20260506191507 56 56 3.5 10.4 0.00 0.00 0.00 63 1016.6
20260506190002 56 56 7.0 12.2 0.00 0.00 0.00 66 1015.5
20260506184504 56 75 5.2 7.8 0.00 0.00 0.00 72 1015.8
20260506183005 56 88 3.5 9.6 0.00 0.00 0.00 75 1016.2
20260506181502 56 75 1.7 4.3 0.00 0.00 0.00 75 1016.8
20260506180003 56 96 1.7 3.5 0.00 0.00 0.00 76 1017.2
20260506174502 57 148 2.6 5.2 0.00 0.00 0.00 76 1017.5
20260506173004 58 107 2.6 6.1 0.00 0.00 0.00 76 1017.5
20260506171504 59 150 4.3 7.8 0.00 0.00 0.00 74 1017.3
20260506170002 60 114 2.6 5.2 0.00 0.00 0.00 73 1016.8
20260506164513 61 113 1.7 5.2 0.00 0.00 0.00 73 1017.1
20260506163006 61 146 2.6 6.1 0.00 0.00 0.00 71 1017.0
20260506161504 61 87 2.6 6.1 0.00 0.00 0.00 71 1017.0
20260506160005 62 113 3.5 7.0 0.00 0.00 0.00 68 1017.5
20260506154508 64 172 4.3 7.0 0.00 0.00 0.00 65 1017.9
20260506153002 64 153 5.2 7.8 0.00 0.00 0.00 64 1018.0
20260506151502 64 119 3.5 6.1 0.00 0.00 0.00 59 1017.8
20260506150004 65 148 3.5 6.1 0.00 0.00 0.00 57 1018.0
20260506144521 65 126 3.5 7.0 0.00 0.00 0.00 57 1018.1
20260506143012 65 104 2.6 7.0 0.00 0.00 0.00 53 1018.1